Shelton, WA
on Sunday, December 23, 2012

Sunday
Previous Day Next Day
Daily Summary
 ActualAverage (KOLM)Record (KOLM)
Temperature
Mean Temperature °F 38°F  
Max Temperature 41°F 44°F 59°F (1950)
Min Temperature 33°F 32°F -7°F (1983)
Degree Days
Heating Degree Days 28 27  
Month to date heating degree days 610  
Since 1 July heating degree days 2055  
Cooling Degree Days 0 0  
Month to date cooling degree days 0  
Year to date cooling degree days 106  
Moisture
Dew Point 37°F   
Average Humidity 93    
Maximum Humidity 100    
Minimum Humidity 82    
Precipitation
Precipitation 0.27 in 0.24 in 1.59 in (2005)
Month to date precipitation 5.62  
Year to date precipitation 48.16  
Wind
Wind Speed 5 mph   
Max Wind Speed 9 mph   
Max Gust Speed mph   
Visibility 10 miles   
Events Rain   

Key: T is trace of precipitation, MM is missing value
Source: NWS Daily Summary
Time(PST)TemperatureDew PointHumidity Pressure Visibility Wind DirectionWind SpeedGust SpeedPrecipitationEvents Conditions
12:02 AM 37.4°F 37.4°F 100% 29.71 in 10.0 miles NNE 3.5 mph - N/A   Overcast
12:53 AM 39.9°F 37.9°F 93% 29.73 in 10.0 miles SE 4.6 mph - 0.03 in Rain Light Rain
1:53 AM 41.0°F 37.0°F 86% 29.72 in 10.0 miles SE 8.1 mph - 0.00 in   Overcast
2:53 AM 41.0°F 37.9°F 89% 29.73 in 10.0 miles SE 6.9 mph - 0.01 in   Overcast
3:42 AM 41.0°F 37.4°F 87% 29.71 in 10.0 miles SSE 9.2 mph - N/A   Overcast
3:50 AM 41.0°F 37.4°F 87% 29.71 in 10.0 miles SE 9.2 mph - N/A   Overcast
3:53 AM 41.0°F 37.0°F 86% 29.73 in 10.0 miles SE 9.2 mph - N/A   Mostly Cloudy
4:18 AM 41.0°F 37.4°F 87% 29.71 in 10.0 miles SE 9.2 mph - N/A   Overcast
4:53 AM 41.0°F 36.0°F 82% 29.72 in 10.0 miles SSE 9.2 mph - N/A   Mostly Cloudy
5:22 AM 41.0°F 37.4°F 87% 29.70 in 10.0 miles SSE 8.1 mph - N/A   Mostly Cloudy
5:53 AM 41.0°F 37.0°F 86% 29.71 in 10.0 miles SE 8.1 mph - N/A   Overcast
6:06 AM 41.0°F 37.4°F 87% 29.70 in 10.0 miles SE 9.2 mph - N/A   Overcast
6:53 AM 41.0°F 37.0°F 86% 29.70 in 10.0 miles SE 8.1 mph - N/A   Overcast
7:53 AM 41.0°F 37.0°F 86% 29.70 in 10.0 miles SE 9.2 mph - N/A   Mostly Cloudy
8:53 AM 39.9°F 37.0°F 89% 29.70 in 10.0 miles ESE 3.5 mph - N/A   Overcast
9:18 AM 39.2°F 37.4°F 93% 29.68 in 10.0 miles ENE 3.5 mph - N/A   Overcast
9:53 AM 41.0°F 37.9°F 89% 29.69 in 10.0 miles ENE 3.5 mph - N/A   Overcast
10:18 AM 41.0°F 37.4°F 87% 29.67 in 10.0 miles ENE 3.5 mph - N/A   Overcast
10:53 AM 41.0°F 37.9°F 89% 29.67 in 10.0 miles NNE 3.5 mph - N/A   Overcast
11:53 AM 39.9°F 39.0°F 97% 29.66 in 10.0 miles NNW 3.5 mph - 0.01 in Rain Light Rain
12:53 PM 39.9°F 37.9°F 93% 29.64 in 10.0 miles NNW 3.5 mph - 0.08 in Rain Light Rain
1:53 PM 39.0°F 39.0°F 100% 29.63 in 10.0 miles NW 3.5 mph - 0.04 in Rain Light Rain
2:53 PM 39.9°F 39.0°F 97% 29.63 in 10.0 miles Calm Calm - 0.05 in Rain Light Rain
3:07 PM 39.2°F 37.4°F 93% 29.62 in 10.0 miles Calm Calm - 0.01 in Rain Light Rain
3:51 PM 39.2°F 37.4°F 93% 29.62 in 10.0 miles Calm Calm - 0.04 in Rain Light Rain
3:53 PM 39.0°F 37.9°F 96% 29.64 in 10.0 miles Calm Calm - 0.04 in Rain Light Rain
4:28 PM 37.4°F 37.4°F 100% 29.64 in 10.0 miles WSW 3.5 mph - 0.01 in   Overcast
4:53 PM 37.9°F 37.0°F 97% 29.66 in 10.0 miles Calm Calm - 0.01 in   Overcast
5:53 PM 37.9°F 37.0°F 97% 29.67 in 10.0 miles Calm Calm - N/A   Overcast
6:53 PM 37.9°F 37.0°F 97% 29.69 in 10.0 miles Calm Calm - N/A   Overcast
7:53 PM 37.0°F 36.0°F 96% 29.71 in 10.0 miles Calm Calm - N/A   Mostly Cloudy
8:30 PM 35.6°F 35.6°F 100% 29.71 in 10.0 miles Calm Calm - N/A   Overcast
8:53 PM 36.0°F 36.0°F 100% 29.73 in 10.0 miles Calm Calm - N/A   Overcast
9:13 PM 35.6°F 35.6°F 100% 29.72 in 6.0 miles SW 3.5 mph - N/A   Scattered Clouds
9:53 PM 34.0°F 34.0°F 100% 29.75 in 10.0 miles WSW 4.6 mph - N/A   Mostly Cloudy
10:11 PM 35.6°F 35.6°F 100% 29.75 in 10.0 miles WSW 5.8 mph - N/A   Mostly Cloudy
10:21 PM 35.6°F 35.6°F 100% 29.75 in 10.0 miles SW 4.6 mph - N/A   Mostly Cloudy
10:43 PM 33.8°F 33.8°F 100% 29.77 in 10.0 miles Calm Calm - N/A   Overcast
10:53 PM 34.0°F 34.0°F 100% 29.79 in 10.0 miles WSW 5.8 mph - N/A   Overcast
11:00 PM 35.6°F 33.8°F 93% 29.77 in 10.0 miles WSW 8.1 mph - N/A   Overcast
11:12 PM 35.6°F 35.6°F 100% 29.78 in 10.0 miles WSW 5.8 mph - N/A   Overcast
11:53 PM 36.0°F 36.0°F 100% 29.81 in 10.0 miles SW 5.8 mph - N/A   Overcast
Moon Phase
Dec. 23 Dec. 28 Jan. 04 Jan. 11 Jan. 18
Sunrise:07:57 AM (PST) Moon Rise:01:27 PM (PST)
Sunset:04:26 PM (PST) Moon Set:03:36 AM (PST)

Copyright © 2014 The Weather Underground, Inc.